LEMUR 2 SIERRINI

导读

LEMUR 2 SIERRINI是美国Spire Global公司开发的LEMUR 2系列立方体卫星,于2024年8月16日发射升空。作为该系列的最新成员,它延续了系列模块化设计优势,搭载先进无线电掩星传感器,通过接收GPS信号探测大气与电离层特性,服务气象监测、地球观测领域,为提升天气预报精度、气候研究、灾害预警提供关键数据支撑,目前已在轨稳定运行超一年,持续贡献全球观测数据。

基本信息
目录编号:
60579
目录名称:
LEMUR 2 SIERRINI
国际标识:
2024-149DR
轨道中心:
EARTH
卫星名称:
LEMUR 2 SIERRINI
卫星全名:
LEMUR 2 SIERRINI
卫星状态:
在轨 (已飞行749 天)
发射日期:
2024-08-16 UTC
国别 :
美国 (US)
星等 :
--
轨道信息
数据来源 国际轨道数据
星历时间: 2026-09-04T09:15:52+0800
16小时前
查看轨道信息
半长轴: 6906.995km
偏心率: 0.0003518
轨道倾角: 97.680°
近地点辐角 261.857°
升交点赤经 330.062°
平近点角 98.226°
近地点: 526.428km
远地点: 531.288km
周期: 95.212分钟
每日圈数: 15.124084
详细信息
使用方式:
暂无
2D轨道图
3D轨道图
轨道高度分析图
轨道倾角分析图
轨道综合分析图
查看轨道综合分析图
交会数据列表
事件ID 空间交会对象 最接近时刻(TCA) 交会距离 交会风险概率(CRP) 交会风险指数(CRI) 操作
CDM_260902-015606-057906-494421
2026-09-02T
01:56:47+0000
2.165 km
极远距离
2.275508E-6 低风险 0.42
CDM_260906-055806-057906-493321
2026-09-06T
05:58:58+0000
2.592 km
极远距离
1.592769E-6 低风险 0.39